This demonstration page uses our WeatherBlox Daily Observations layout. Learn more.

Left ArrowRight Arrow

40.92945, -100.16068

Hourly Observations for April 10, 2020

Temp ( °F °C ) Dew Point ( °F °C ) Humidity (%) Winds ( mph kmh ) Pressure ( in mb ) Visibility ( mi km ) Precip ( " mm )
12:15 am 00:15 Clear 31 -0.7 17 -8.2 57 57 E 7 11 30.30 1026 10 16 0.00 0.00
12:35 am 00:35 Clear 30 -1.1 17 -8.5 58 58 SE 5 7 30.32 1027 10 16 0.00 0.00
12:55 am 00:55 Clear 28 -2.2 17 -8.1 64 64 SE 3 6 30.32 1027 10 16 0.00 0.00
1:15 am 01:15 Clear 28 -2.3 17 -8.2 64 64 SE 3 6 30.32 1027 10 16 0.00 0.00
1:35 am 01:35 Clear 29 -1.6 17 -8.5 60 60 SE 3 6 30.31 1027 10 16 0.00 0.00
1:55 am 01:55 Clear 30 -1.2 16 -8.7 57 57 SE 5 7 30.31 1026 10 16 0.00 0.00
2:15 am 02:15 Clear 28 -2.4 17 -8.3 64 64 SE 5 7 30.32 1027 10 16 0.00 0.00
2:35 am 02:35 Clear 29 -1.9 17 -8.5 61 61 SSE 5 7 30.31 1026 10 16 0.00 0.00
2:55 am 02:55 Clear 27 -2.9 17 -8.5 66 66 SSE 3 6 30.31 1026 10 16 0.00 0.00
3:15 am 03:15 Clear 26 -3.2 17 -8.3 68 68 S 3 6 30.31 1026 10 16 0.00 0.00
3:35 am 03:35 Clear 26 -3.3 17 -8.2 69 69 S 5 7 30.32 1027 10 16 0.00 0.00
3:55 am 03:55 Clear 25 -3.7 17 -8.5 70 70 S 5 7 30.32 1027 10 16 0.00 0.00
4:15 am 04:15 Clear 25 -3.9 17 -8.6 70 70 SSE 5 7 30.31 1026 10 16 0.00 0.00
4:35 am 04:35 Clear 25 -3.8 17 -8.5 70 70 S 5 7 30.30 1026 10 16 0.00 0.00
4:55 am 04:55 Clear 26 -3.5 16 -9 66 66 SSE 5 7 30.27 1025 10 16 0.00 0.00
5:15 am 05:15 Clear 24 -4.2 17 -8.6 72 72 SSW 5 7 30.29 1026 10 16 0.00 0.00
5:35 am 05:35 Clear 24 -4.3 17 -8.3 74 74 Calm 30.29 1026 10 16 0.00 0.00
5:55 am 05:55 Clear 24 -4.4 17 -8.5 73 73 S 5 7 30.29 1026 10 16 0.00 0.00
6:15 am 06:15 Clear 24 -4.5 17 -8.6 73 73 S 8 13 30.29 1026 10 16 0.00 0.00
6:35 am 06:35 Partly Cloudy 25 -4 17 -8.1 73 73 S 5 7 30.28 1025 10 16 0.00 0.00
6:55 am 06:55 Partly Cloudy 26 -3.5 18 -7.7 73 73 S 7 11 30.27 1025 10 16 0.00 0.00
7:15 am 07:15 Partly Cloudy 27 -3 18 -7.6 71 71 S 9 15 30.27 1025 10 16 0.00 0.00
7:35 am 07:35 Partly Cloudy 28 -2.5 19 -7.5 69 69 S 9 15 30.26 1025 10 16 0.00 0.00
7:55 am 07:55 Partly Cloudy 29 -1.9 18 -7.7 65 65 S 14 22 30.26 1025 10 16 0.00 0.00
8:15 am 08:15 Sunny 30 -1.3 18 -7.9 61 61 S 12 19 30.24 1024 10 16 0.00 0.00
8:35 am 08:35 Sunny 32 0.1 17 -8.1 54 54 S 18 30 30.23 1024 10 16 0.00 0.00
8:55 am 08:55 Sunny 34 0.9 17 -8.4 50 50 S 20 31 30.22 1023 10 16 0.00 0.00
9:15 am 09:15 Sunny 34 1.1 17 -8.6 49 49 S 16 26 30.20 1023 10 16 0.00 0.00
9:35 am 09:35 Sunny 35 1.7 18 -7.7 50 50 S 15 24 30.19 1022 10 16 0.00 0.00
9:55 am 09:55 Sunny 37 2.7 18 -7.7 47 47 S 18 30 30.17 1022 10 16 0.00 0.00
10:15 am 10:15 Sunny 39 3.7 19 -7.1 46 46 S 20 31 30.14 1021 10 16 0.00 0.00
10:35 am 10:35 Sunny 40 4.6 19 -7.3 42 42 S 21 33 30.12 1020 10 16 0.00 0.00
10:55 am 10:55 Sunny 42 5.6 20 -6.5 42 42 S 17 28 30.09 1019 10 16 0.00 0.00
11:15 am 11:15 Sunny 45 7.1 21 -6 39 39 S 18 30 30.06 1018 10 16 0.00 0.00
11:35 am 11:35 Sunny 46 7.7 21 -5.9 38 38 S 21 33 30.03 1017 7 11 0.00 0.00
11:55 am 11:55 Sunny 49 9.2 23 -5.2 36 36 S 22 35 30.00 1016 10 16 0.00 0.00
12:15 pm 12:15 Sunny 49 9.6 23 -5 36 36 S 22 35 29.97 1015 10 16 0.00 0.00
12:35 pm 12:35 Sunny 52 11 25 -3.8 36 36 S 22 35 29.95 1014 10 16 0.00 0.00
12:55 pm 12:55 Sunny 53 11.6 26 -3.3 35 35 SSW 25 41 29.94 1014 10 16 0.00 0.00
1:15 pm 13:15 Sunny 54 12 27 -3 35 35 SSW 26 43 29.91 1013 10 16 0.00 0.00
1:35 pm 13:35 Sunny 56 13.2 28 -2 35 35 S 26 43 29.88 1012 10 16 0.00 0.00
1:55 pm 13:55 Sunny 57 14 29 -1.5 35 35 SSW 28 44 29.85 1011 10 16 0.00 0.00
2:15 pm 14:15 Sunny 59 14.9 30 -0.9 34 34 SSW 26 43 29.84 1010 10 16 0.00 0.00
2:35 pm 14:35 Sunny 61 16.1 32 -0.1 33 33 SSW 23 37 29.81 1009 10 16 0.00 0.00
2:55 pm 14:55 Sunny 62 16.8 32 0.1 32 32 SSW 24 39 29.79 1009 10 16 0.00 0.00
3:15 pm 15:15 Sunny 64 18 34 1.1 32 32 SSW 21 33 29.76 1008 10 16 0.00 0.00
3:35 pm 15:35 Sunny 66 18.7 35 1.8 32 32 SSW 20 31 29.72 1007 10 16 0.00 0.00
3:55 pm 15:55 Sunny 67 19.3 36 2.4 33 33 S 23 37 29.70 1006 10 16 0.00 0.00
4:15 pm 16:15 Sunny 67 19.6 36 2.4 32 32 SSW 15 24 29.69 1005 10 16 0.00 0.00
4:35 pm 16:35 Sunny 67 19.7 37 2.5 32 32 S 23 37 29.68 1005 10 16 0.00 0.00
4:55 pm 16:55 Sunny 68 20 37 2.6 32 32 SSW 21 33 29.66 1004 10 16 0.00 0.00
5:15 pm 17:15 Sunny 69 20.4 37 2.8 31 31 SSW 20 31 29.65 1004 10 16 0.00 0.00
5:35 pm 17:35 Sunny 69 20.6 38 3.1 32 32 SW 16 26 29.64 1004 10 16 0.00 0.00
5:55 pm 17:55 Sunny 69 20.8 37 3 31 31 SSW 13 20 29.63 1003 10 16 0.00 0.00
6:15 pm 18:15 Sunny 70 21 38 3.3 31 31 SSW 14 22 29.61 1003 10 16 0.00 0.00
6:35 pm 18:35 Sunny 70 21.2 38 3.3 31 31 S 13 20 29.61 1003 10 16 0.00 0.00
6:55 pm 18:55 Sunny 70 21 39 3.9 33 33 S 10 17 29.60 1003 10 16 0.00 0.00
7:15 pm 19:15 Sunny 68 20.2 41 5.2 38 38 SSE 6 9 29.61 1003 10 16 0.00 0.00
7:35 pm 19:35 Sunny 66 18.8 41 5 40 40 S 9 15 29.61 1003 10 16 0.00 0.00
7:55 pm 19:55 Sunny 64 17.7 40 4.5 42 42 S 8 13 29.62 1003 10 16 0.00 0.00
8:15 pm 20:15 Clear 60 15.5 40 4.4 48 48 SSE 8 13 29.64 1004 10 16 0.00 0.00
8:35 pm 20:35 Clear 61 16 39 4 45 45 SE 8 13 29.63 1003 10 16 0.00 0.00
8:55 pm 20:55 Clear 60 15.5 39 3.7 46 46 SE 9 15 29.64 1004 10 16 0.00 0.00
9:15 pm 21:15 Clear 57 13.9 39 3.7 50 50 ESE 8 13 29.66 1004 10 16 0.00 0.00
9:35 pm 21:35 Clear 56 13.2 38 3.6 52 52 ESE 8 13 29.66 1004 10 16 0.00 0.00
9:55 pm 21:55 Clear 55 12.6 38 3.5 54 54 ESE 8 13 29.68 1005 10 16 0.00 0.00
10:15 pm 22:15 Clear 53 11.6 38 3.3 57 57 ESE 8 13 29.69 1005 10 16 0.00 0.00
10:35 pm 22:35 Clear 51 10.8 38 3.2 60 60 ESE 7 11 29.69 1006 10 16 0.00 0.00
10:55 pm 22:55 Partly Cloudy 51 10.5 38 3.2 61 61 ESE 6 9 29.69 1005 10 16 0.00 0.00
11:15 pm 23:15 Partly Cloudy 51 10.5 38 3.1 60 60 ESE 7 11 29.69 1005 10 16 0.00 0.00
11:35 pm 23:35 Partly Cloudy 49 9.2 37 3 65 65 E 6 9 29.69 1005 10 16 0.00 0.00
11:55 pm 23:55 Mostly Cloudy 48 9.1 38 3.2 67 67 ESE 7 11 29.68 1005 10 16 0.00 0.00

Powered by AerisWeather